Home   Weather   Miami   Past weeks

Flag for USA Past Weather in Miami, Florida, USA — Yesterday and Last 2 Weeks

79 °F

Mostly cloudy.

Feels Like: 81 °F
Forecast: 75 / 80 °F
Wind: 12 mph from East

Location: Miami International Airport

Current Time: Oct 27, 2016 at 8:50:41 AM

Latest Report: Oct 27, 2016 at 7:53 AM

Visibility: 10 mi

Pressure: 30.08 "Hg

Humidity: 62%

Dew Point: 65 °F

Location of MiamiLocation

Past Weather in Miami — Graph


Miami Temperature Yesterday

Maximum temperature yesterday: 84 °F (at 12:53 PM)
Minimum temperature yesterday: 72 °F (at 8:53 PM)
Average temperature yesterday: 78 °F

High & Low Weather Summary for the Past Weeks

High88 °F (Oct 13, 2:53 PM)94% (Oct 15, 1:53 PM)30.18 "Hg (Oct 15, 1:53 PM)
Low67 °F (Oct 23, 6:53 AM)32% (Oct 22, 5:53 PM)29.78 "Hg (Oct 21, 4:53 PM)
Average79 °F66%29.99 "Hg
* Reported Oct 12 6:53 AM — Oct 27 6:53 AM, Miami, Weather by CustomWeather, © 2016

Note: Actual official high and low records may vary slightly from our data, if they occured in-between our weather recording intervals... More about our weather records


Miami Weather History for the Previous 24 Hours

Scroll right to see more
Time TempWeatherWind HumidityBarometerVisibility
6:53 AM
Thu, Oct 27
79 °FMostly cloudy.15 mph65%30.06 "Hg10 mi
5:53 AM78 °FMostly cloudy.13 mph64%30.05 "Hg10 mi
4:53 AM77 °FMostly cloudy.15 mph71%30.04 "Hg10 mi
3:53 AM73 °FRain. Fog.16 mph90%30.05 "Hg2 mi
2:53 AM75 °FMostly cloudy.8 mph79%30.06 "Hg10 mi
1:53 AM73 °FOvercast.6 mph90%30.07 "Hg10 mi
12:53 AM72 °FLight rain. Mostly cloudy.9 mph93%30.09 "Hg10 mi
11:53 PM
Wed, Oct 26
72 °FMostly cloudy.10 mph93%30.11 "Hg10 mi
10:53 PM72 °FRain. Fog.10 mph93%30.12 "Hg3 mi
9:53 PM73 °FMostly cloudy.8 mph88%30.12 "Hg10 mi
8:53 PM72 °FLight rain. Mostly cloudy.16 mph81%30.12 "Hg5 mi
7:53 PM80 °FOvercast.13 mph64%30.08 "Hg10 mi
6:53 PM80 °FOvercast.10 mph62%30.08 "Hg10 mi
5:53 PM81 °FMore clouds than sun.14 mph62%30.07 "Hg10 mi
4:53 PM82 °FMostly cloudy.14 mph56%30.08 "Hg10 mi
3:53 PM82 °FMostly cloudy.16 mph56%30.08 "Hg10 mi
2:53 PM83 °FMostly cloudy.18 mph57%30.09 "Hg10 mi
1:53 PM82 °FMore clouds than sun.18 mph58%30.10 "Hg10 mi
12:53 PM84 °FMore clouds than sun.18 mph48%30.13 "Hg10 mi
11:53 AM82 °FMostly cloudy.15 mph58%30.14 "Hg10 mi
10:53 AM82 °FOvercast.18 mph55%30.14 "Hg10 mi
9:53 AM81 °FMore clouds than sun.16 mph56%30.14 "Hg10 mi
8:53 AM80 °FOvercast.13 mph54%30.12 "Hg10 mi
Weather by CustomWeather, © 2016

See weather overviewHow to use our weather pages